Mayer, AZ

6:12 PM MST on January 30, 2015 (GMT -0700)
Spring Valley | Change Station
CLOSE
Current Station
Personal Weather Station
Location: Mayer, AZ
Elevation: 3917 ft
Nearby Weather Stations

Elev 3917 ft 34.34 °N, 112.16 °W | Updated 11 minutes ago

Overcast
Overcast
48.3 °F
Feels Like 48 °F
N
2.0
Wind Variable Wind from SSE
Gusts 3.0 mph

Today
High -- | Low -- °F
--% Chance of Precip.
Yesterday
High -- | Low -- °F
Precip. -- in
7:27 AM 5:56 PM
Waxing Gibbous, 86% visible
Pressure 29.77 in
Visibility 5.0 miles
Clouds Scattered Clouds 600 ft
Overcast 1200 ft
Windchill 48 °F
Dew Point 47 °F
Humidity 96%
Rainfall 1.12 in
Snow Depth Not available.
UV 0 out of 12
Pollen .60 out of 12
Air Quality Not available.
Flu Activity Not available.
METAR KPRC 310053Z 17004KT 5SM BR SCT006 OVC012 08/07 A2987 RMK AO2 RAB05E16 SLP080 P0000 T00780072

More Conditions Fewer Conditions

Pressure 29.77 in
Visibility 5.0 miles
Clouds Scattered Clouds 600 ft
Overcast 1200 ft
Windchill 48 °F
Dew Point 47 °F
Humidity 96%
Rainfall 1.12 in
Snow Depth Not available.
UV 0 out of 12
Pollen .60 out of 12
Air Quality Not available.
Flu Activity Not available.
METAR KPRC 310053Z 17004KT 5SM BR SCT006 OVC012 08/07 A2987 RMK AO2 RAB05E16 SLP080 P0000 T00780072

More Conditions Fewer Conditions

10-Day Weather Forecast

Almanac

Astronomy

Jan. 30, 2015 Rise Set
Actual Time
Civil Twilight
Nautical Twilight
Astronomical Twilight
Moon
Length of Visible Light
Length of Day
Tomorrow will be .
, % of the Moon is Illuminated

Today's Extremes

State Highs State Lows

Community

WunderPhotos

Upload Photos

1,791,953 photos uploaded!

WunderBlogs® & News

Nearby

Air Quality

  Air Quality AQ Index Pollutant
Not available.

Snow Depth

Station Depth Elevation

Earthquake Activity

City Distance Mag. Time & Date
Minimum magnitude displayed is 2.5.

Coastal Water Temperatures

Place Temperature

Nearby Weather Stations